Location: Unspecified
(0.0000°N, 0.0000°E)
Time: 17:59:15
(UTC+00:00)

Courier 1B Rocket - Pass Details

Date: 04 October 2020
Orbit: 921 x 1202 km, 28.2° (Epoch: 27 October)

Event Time Altitude Azimuth Distance (km) Brightness Sun altitude
Rises 13:20:33 0° 284° (WNW) 3,620 8.3 66.6°
Reaches altitude 10° 13:23:16 10° 276° (W) 2,708 7.9 65.9°
Maximum altitude 13:29:23 40° 208° (SSW) 1,446 6.9 64.4°
Drops below altitude 10° 13:35:56 10° 140° (SE) 2,900 7.5 62.8°
Sets 13:38:58 0° 133° (SE) 3,903 8.0 62.0°
